| time (UTC) | temp C | wind direction | speed KPH | gust KPH | rain 1hr cm | rain 24hr cm | rain mn cm | humidity % | barometer mb |
| 20260509222503 | 4 | 153 | 0.0 | 0.0 | 0.00 | 0.00 | 0.00 | 76 | 1020.1 |
| 20260509222007 | 4 | 153 | 0.0 | 0.0 | 0.00 | 0.00 | 0.00 | 76 | 1020.1 |
| 20260509221516 | 4 | 153 | 0.0 | 0.0 | 0.00 | 0.00 | 0.00 | 77 | 1020.2 |
| 20260509221007 | 4 | 153 | 0.0 | 3.2 | 0.00 | 0.00 | 0.00 | 75 | 1020.1 |
| 20260509220503 | 4 | 153 | 0.0 | 3.2 | 0.00 | 0.00 | 0.00 | 76 | 1020.1 |
| 20260509220022 | 4 | 153 | 0.0 | 1.6 | 0.00 | 0.00 | 0.00 | 75 | 1020.2 |
| 20260509215513 | 4 | 153 | 0.0 | 3.2 | 0.00 | 0.00 | 0.00 | 75 | 1020.2 |
| 20260509215008 | 4 | 153 | 0.0 | 3.2 | 0.00 | 0.00 | 0.00 | 74 | 1020.2 |
| 20260509214510 | 5 | 207 | 0.0 | 3.2 | 0.00 | 0.00 | 0.00 | 74 | 1020.2 |
| 20260509214012 | 5 | 213 | 0.0 | 0.0 | 0.00 | 0.00 | 0.00 | 74 | 1020.2 |
| 20260509213509 | 5 | 213 | 0.0 | 0.0 | 0.00 | 0.00 | 0.00 | 73 | 1020.3 |
| 20260509213009 | 5 | 213 | 0.0 | 0.0 | 0.00 | 0.00 | 0.00 | 74 | 1020.2 |
| 20260509212507 | 5 | 213 | 0.0 | 0.0 | 0.00 | 0.00 | 0.00 | 73 | 1020.2 |
| 20260509212009 | 5 | 213 | 0.0 | 0.0 | 0.00 | 0.00 | 0.00 | 74 | 1020.1 |
| 20260509211524 | 5 | 213 | 0.0 | 0.0 | 0.00 | 0.00 | 0.00 | 72 | 1020.1 |
| 20260509211009 | 5 | 213 | 0.0 | 0.0 | 0.00 | 0.00 | 0.00 | 73 | 1020.1 |
| 20260509210508 | 5 | 213 | 0.0 | 0.0 | 0.00 | 0.00 | 0.00 | 73 | 1020.2 |
| 20260509210022 | 5 | 213 | 0.0 | 0.0 | 0.00 | 0.00 | 0.00 | 71 | 1020.2 |
| 20260509205505 | 5 | 213 | 0.0 | 0.0 | 0.00 | 0.00 | 0.00 | 71 | 1020.3 |
| 20260509205007 | 5 | 213 | 0.0 | 0.0 | 0.00 | 0.00 | 0.00 | 70 | 1020.2 |
| 20260509204526 | 6 | 213 | 0.0 | 0.0 | 0.00 | 0.00 | 0.00 | 70 | 1020.2 |
| 20260509204011 | 6 | 213 | 0.0 | 0.0 | 0.00 | 0.00 | 0.00 | 68 | 1020.3 |
| 20260509203504 | 6 | 213 | 0.0 | 0.0 | 0.00 | 0.00 | 0.00 | 69 | 1020.3 |
| 20260509203017 | 6 | 213 | 0.0 | 0.0 | 0.00 | 0.00 | 0.00 | 68 | 1020.3 |
| 20260509202508 | 6 | 213 | 0.0 | 3.2 | 0.00 | 0.00 | 0.00 | 67 | 1020.3 |
| 20260509202004 | 6 | 213 | 0.0 | 3.2 | 0.00 | 0.00 | 0.00 | 66 | 1020.2 |
| 20260509201515 | 6 | 213 | 0.0 | 3.2 | 0.00 | 0.00 | 0.00 | 67 | 1020.3 |
| 20260509201013 | 7 | 213 | 0.0 | 1.6 | 0.00 | 0.00 | 0.00 | 66 | 1020.3 |
| 20260509200508 | 7 | 213 | 0.0 | 1.6 | 0.00 | 0.00 | 0.00 | 64 | 1020.3 |
| 20260509200009 | 7 | 213 | 0.0 | 1.6 | 0.00 | 0.00 | 0.00 | 65 | 1020.3 |
| 20260509195509 | 7 | 213 | 0.0 | 1.6 | 0.00 | 0.00 | 0.00 | 64 | 1020.3 |
| 20260509195007 | 7 | 213 | 1.6 | 1.6 | 0.00 | 0.00 | 0.00 | 63 | 1020.3 |
| 20260509194509 | 7 | 205 | 0.0 | 3.2 | 0.00 | 0.00 | 0.00 | 63 | 1020.2 |
| 20260509194007 | 8 | 202 | 0.0 | 3.2 | 0.00 | 0.00 | 0.00 | 1020.3 | |
| 20260509193508 | 8 | 202 | 0.0 | 3.2 | 0.00 | 0.00 | 0.00 | 58 | 1020.2 |
| 20260509193024 | 8 | 202 | 0.0 | 1.6 | 0.00 | 0.00 | 0.00 | 58 | 1020.3 |
| 20260509192504 | 8 | 202 | 0.0 | 1.6 | 0.00 | 0.00 | 0.00 | 57 | 1020.3 |
| 20260509192008 | 9 | 202 | 0.0 | 3.2 | 0.00 | 0.00 | 0.00 | 56 | 1020.3 |
| 20260509191524 | 10 | 205 | 1.6 | 3.2 | 0.00 | 0.00 | 0.00 | 54 | 1020.2 |
| 20260509191007 | 10 | 203 | 1.6 | 4.8 | 0.00 | 0.00 | 0.00 | 53 | 1020.2 |
| 20260509190507 | 10 | 211 | 3.2 | 6.4 | 0.00 | 0.00 | 0.00 | 52 | 1020.1 |
| 20260509190024 | 10 | 200 | 1.6 | 6.4 | 0.00 | 0.00 | 0.00 | 52 | 1020.1 |
| 20260509185509 | 11 | 213 | 3.2 | 8.0 | 0.00 | 0.00 | 0.00 | 50 | 1020.0 |
| 20260509185007 | 11 | 223 | 3.2 | 8.0 | 0.00 | 0.00 | 0.00 | 49 | 1020.0 |
| 20260509184520 | 11 | 181 | 3.2 | 8.0 | 0.00 | 0.00 | 0.00 | 49 | 1020.0 |
| 20260509184012 | 11 | 222 | 3.2 | 6.4 | 0.00 | 0.00 | 0.00 | 47 | 1020.0 |
| 20260509183509 | 11 | 213 | 1.6 | 8.0 | 0.00 | 0.00 | 0.00 | 47 | 1019.9 |
| 20260509183015 | 12 | 163 | 3.2 | 8.0 | 0.00 | 0.00 | 0.00 | 46 | 1020.0 |
| 20260509182509 | 12 | 194 | 1.6 | 8.0 | 0.00 | 0.00 | 0.00 | 45 | 1020.1 |
| 20260509182010 | 12 | 170 | 3.2 | 8.0 | 0.00 | 0.00 | 0.00 | 44 | 1020.1 |
| 20260509181511 | 12 | 163 | 3.2 | 9.7 | 0.00 | 0.00 | 0.00 | 44 | 1020.1 |
| 20260509181010 | 12 | 163 | 3.2 | 12.9 | 0.00 | 0.00 | 0.00 | 42 | 1020.1 |
| 20260509180508 | 12 | 219 | 3.2 | 12.9 | 0.00 | 0.00 | 0.00 | 42 | 1020.1 |
| 20260509180028 | 12 | 229 | 6.4 | 12.9 | 0.00 | 0.00 | 0.00 | 42 | 1020.0 |
| 20260509175508 | 13 | 215 | 4.8 | 14.5 | 0.00 | 0.00 | 0.00 | 41 | 1020.1 |
| 20260509175010 | 13 | 170 | 6.4 | 14.5 | 0.00 | 0.00 | 0.00 | 41 | 1020.0 |
| 20260509174524 | 13 | 193 | 3.2 | 14.5 | 0.00 | 0.00 | 0.00 | 41 | 1020.1 |
| 20260509173509 | 13 | 214 | 6.4 | 16.1 | 0.00 | 0.00 | 0.00 | 42 | 1020.2 |
| 20260509173025 | 13 | 203 | 8.0 | 16.1 | 0.00 | 0.00 | 0.00 | 41 | 1020.0 |
| 20260509172504 | 13 | 161 | 9.7 | 16.1 | 0.00 | 0.00 | 0.00 | 43 | 1019.9 |
| 20260509172006 | 13 | 193 | 4.8 | 14.5 | 0.00 | 0.00 | 0.00 | 46 | 1020.0 |
| 20260509171526 | 14 | 168 | 6.4 | 14.5 | 0.00 | 0.00 | 0.00 | 46 | 1020.2 |
| 20260509171016 | 14 | 167 | 6.4 | 14.5 | 0.00 | 0.00 | 0.00 | 45 | 1020.0 |
| 20260509170506 | 14 | 164 | 6.4 | 17.7 | 0.00 | 0.00 | 0.00 | 44 | 1020.1 |
| 20260509170037 | 14 | 167 | 9.7 | 17.7 | 0.00 | 0.00 | 0.00 | 44 | 1020.1 |
| 20260509165509 | 14 | 173 | 6.4 | 16.1 | 0.00 | 0.00 | 0.00 | 44 | 1020.0 |
| 20260509165006 | 15 | 151 | 9.7 | 16.1 | 0.00 | 0.00 | 0.00 | 43 | 1020.0 |
| 20260509164534 | 15 | 155 | 6.4 | 19.3 | 0.00 | 0.00 | 0.00 | 44 | 1020.0 |
| 20260509164013 | 15 | 140 | 8.0 | 22.5 | 0.00 | 0.00 | 0.00 | 43 | 1020.0 |
| 20260509163511 | 14 | 157 | 12.9 | 22.5 | 0.00 | 0.00 | 0.00 | 43 | 1020.1 |
| 20260509163017 | 15 | 175 | 12.9 | 20.9 | 0.00 | 0.00 | 0.00 | 43 | 1020.1 |
| 20260509162512 | 15 | 162 | 12.9 | 20.9 | 0.00 | 0.00 | 0.00 | 43 | 1020.2 |
| 20260509162015 | 15 | 160 | 14.5 | 19.3 | 0.00 | 0.00 | 0.00 | 42 | 1020.2 |
| 20260509161509 | 15 | 146 | 6.4 | 17.7 | 0.00 | 0.00 | 0.00 | 43 | 1020.3 |
| 20260509161008 | 15 | 146 | 8.0 | 20.9 | 0.00 | 0.00 | 0.00 | 43 | 1020.3 |
| 20260509160510 | 15 | 180 | 16.1 | 20.9 | 0.00 | 0.00 | 0.00 | 42 | 1020.3 |
| 20260509160032 | 15 | 155 | 14.5 | 20.9 | 0.00 | 0.00 | 0.00 | 41 | 1020.4 |
| 20260509155510 | 15 | 145 | 8.0 | 19.3 | 0.00 | 0.00 | 0.00 | 42 | 1020.4 |
| 20260509155009 | 15 | 167 | 11.3 | 17.7 | 0.00 | 0.00 | 0.00 | 39 | 1020.5 |
| 20260509154525 | 15 | 136 | 11.3 | 17.7 | 0.00 | 0.00 | 0.00 | 39 | 1020.5 |
| 20260509154010 | 15 | 130 | 9.7 | 19.3 | 0.00 | 0.00 | 0.00 | 40 | 1020.6 |
| 20260509153514 | 15 | 154 | 12.9 | 20.9 | 0.00 | 0.00 | 0.00 | 39 | 1020.7 |
| 20260509153033 | 15 | 81 | 11.3 | 22.5 | 0.00 | 0.00 | 0.00 | 40 | 1020.7 |
| 20260509152507 | 15 | 142 | 14.5 | 22.5 | 0.00 | 0.00 | 0.00 | 38 | 1020.7 |
| 20260509152009 | 16 | 136 | 9.7 | 20.9 | 0.00 | 0.00 | 0.00 | 39 | 1020.7 |
| 20260509151523 | 16 | 125 | 11.3 | 20.9 | 0.00 | 0.00 | 0.00 | 38 | 1020.8 |
| 20260509151008 | 16 | 167 | 9.7 | 19.3 | 0.00 | 0.00 | 0.00 | 40 | 1021.0 |
| 20260509150511 | 15 | 155 | 12.9 | 20.9 | 0.00 | 0.00 | 0.00 | 40 | 1021.0 |
| 20260509150030 | 15 | 174 | 12.9 | 20.9 | 0.00 | 0.00 | 0.00 | 39 | 1020.9 |
| 20260509145509 | 16 | 161 | 12.9 | 20.9 | 0.00 | 0.00 | 0.00 | 37 | 1021.0 |
| 20260509145010 | 16 | 128 | 12.9 | 20.9 | 0.00 | 0.00 | 0.00 | 38 | 1021.0 |
| 20260509144532 | 16 | 138 | 11.3 | 22.5 | 0.00 | 0.00 | 0.00 | 37 | 1021.0 |
| 20260509144010 | 16 | 111 | 14.5 | 22.5 | 0.00 | 0.00 | 0.00 | 37 | 1021.2 |
| 20260509143508 | 16 | 134 | 11.3 | 20.9 | 0.00 | 0.00 | 0.00 | 37 | 1021.3 |
| 20260509143026 | 16 | 134 | 11.3 | 19.3 | 0.00 | 0.00 | 0.00 | 38 | 1021.3 |
| 20260509142508 | 16 | 158 | 9.7 | 17.7 | 0.00 | 0.00 | 0.00 | 39 | 1021.3 |
| 20260509142011 | 16 | 165 | 9.7 | 16.1 | 0.00 | 0.00 | 0.00 | 38 | 1021.3 |
| 20260509141531 | 16 | 159 | 9.7 | 17.7 | 0.00 | 0.00 | 0.00 | 37 | 1021.4 |
| 20260509141015 | 16 | 163 | 11.3 | 19.3 | 0.00 | 0.00 | 0.00 | 37 | 1021.4 |
| 20260509140512 | 16 | 146 | 14.5 | 19.3 | 0.00 | 0.00 | 0.00 | 35 | 1021.6 |
| 20260509140025 | 16 | 156 | 8.0 | 19.3 | 0.00 | 0.00 | 0.00 | 35 | 1021.6 |
| 20260509135513 | 16 | 126 | 12.9 | 19.3 | 0.00 | 0.00 | 0.00 | 34 | 1021.6 |
| 20260509135010 | 16 | 134 | 9.7 | 19.3 | 0.00 | 0.00 | 0.00 | 35 | 1021.8 |
| 20260509134531 | 16 | 123 | 9.7 | 17.7 | 0.00 | 0.00 | 0.00 | 35 | 1021.9 |
| 20260509134015 | 16 | 151 | 9.7 | 19.3 | 0.00 | 0.00 | 0.00 | 33 | 1021.9 |
| 20260509133510 | 16 | 134 | 9.7 | 25.7 | 0.00 | 0.00 | 0.00 | 33 | 1022.0 |
| 20260509133021 | 16 | 143 | 11.3 | 25.7 | 0.00 | 0.00 | 0.00 | 32 | 1022.0 |
| 20260509132511 | 16 | 135 | 9.7 | 20.9 | 0.00 | 0.00 | 0.00 | 32 | 1022.1 |
| 20260509132014 | 16 | 147 | 11.3 | 20.9 | 0.00 | 0.00 | 0.00 | 32 | 1022.2 |
| 20260509131534 | 16 | 147 | 9.7 | 20.9 | 0.00 | 0.00 | 0.00 | 33 | 1022.2 |
| 20260509131016 | 16 | 121 | 14.5 | 20.9 | 0.00 | 0.00 | 0.00 | 33 | 1022.2 |
| 20260509130507 | 16 | 130 | 12.9 | 22.5 | 0.00 | 0.00 | 0.00 | 34 | 1022.3 |
| 20260509130016 | 16 | 142 | 12.9 | 22.5 | 0.00 | 0.00 | 0.00 | 32 | 1022.3 |
| 20260509125512 | 16 | 169 | 6.4 | 20.9 | 0.00 | 0.00 | 0.00 | 32 | 1022.4 |
| 20260509125005 | 16 | 125 | 9.7 | 20.9 | 0.00 | 0.00 | 0.00 | 33 | 1022.5 |
| 20260509124517 | 16 | 176 | 12.9 | 19.3 | 0.00 | 0.00 | 0.00 | 33 | 1022.6 |
| 20260509124009 | 16 | 161 | 9.7 | 19.3 | 0.00 | 0.00 | 0.00 | 32 | 1022.6 |
| 20260509123511 | 16 | 205 | 9.7 | 19.3 | 0.00 | 0.00 | 0.00 | 34 | 1022.7 |
| 20260509123017 | 16 | 107 | 12.9 | 19.3 | 0.00 | 0.00 | 0.00 | 33 | 1022.7 |
| 20260509122510 | 16 | 166 | 4.8 | 19.3 | 0.00 | 0.00 | 0.00 | 34 | 1022.8 |
| 20260509122010 | 16 | 165 | 8.0 | 19.3 | 0.00 | 0.00 | 0.00 | 33 | 1022.8 |
| 20260509121521 | 16 | 190 | 8.0 | 19.3 | 0.00 | 0.00 | 0.00 | 35 | 1022.8 |
| 20260509121006 | 16 | 183 | 11.3 | 19.3 | 0.00 | 0.00 | 0.00 | 32 | 1022.9 |
| 20260509120510 | 16 | 184 | 12.9 | 17.7 | 0.00 | 0.00 | 0.00 | 31 | 1022.8 |
| 20260509120036 | 16 | 254 | 4.8 | 19.3 | 0.00 | 0.00 | 0.00 | 37 | 1022.9 |
| 20260509115506 | 16 | 165 | 8.0 | 19.3 | 0.00 | 0.00 | 0.00 | 33 | 1022.9 |
| 20260509115006 | 16 | 146 | 6.4 | 19.3 | 0.00 | 0.00 | 0.00 | 32 | 1022.9 |
| 20260509114525 | 16 | 163 | 9.7 | 20.9 | 0.00 | 0.00 | 0.00 | 30 | 1023.1 |
| 20260509114010 | 16 | 146 | 14.5 | 20.9 | 0.00 | 0.00 | 0.00 | 30 | 1023.2 |
| 20260509113507 | 15 | 118 | 11.3 | 24.1 | 0.00 | 0.00 | 0.00 | 30 | 1023.2 |
| 20260509113020 | 16 | 174 | 11.3 | 24.1 | 0.00 | 0.00 | 0.00 | 32 | 1023.2 |
| 20260509112510 | 16 | 161 | 12.9 | 24.1 | 0.00 | 0.00 | 0.00 | 31 | 1023.2 |
| 20260509112009 | 17 | 145 | 8.0 | 20.9 | 0.00 | 0.00 | 0.00 | 34 | 1023.2 |
| 20260509111519 | 16 | 74 | 8.0 | 20.9 | 0.00 | 0.00 | 0.00 | 32 | 1023.2 |
| 20260509111009 | 16 | 97 | 3.2 | 20.9 | 0.00 | 0.00 | 0.00 | 32 | 1023.2 |
| 20260509110505 | 15 | 157 | 6.4 | 19.3 | 0.00 | 0.00 | 0.00 | 31 | 1023.3 |
| 20260509110023 | 16 | 113 | 9.7 | 19.3 | 0.00 | 0.00 | 0.00 | 33 | 1023.4 |
| 20260509105513 | 16 | 141 | 8.0 | 14.5 | 0.00 | 0.00 | 0.00 | 32 | 1023.4 |
| 20260509105010 | 15 | 31 | 4.8 | 14.5 | 0.00 | 0.00 | 0.00 | 29 | 1023.4 |
| 20260509104512 | 16 | 119 | 8.0 | 14.5 | 0.00 | 0.00 | 0.00 | 30 | 1023.4 |
| 20260509104009 | 15 | 42 | 4.8 | 14.5 | 0.00 | 0.00 | 0.00 | 30 | 1023.4 |
| 20260509103509 | 16 | 137 | 8.0 | 14.5 | 0.00 | 0.00 | 0.00 | 33 | 1023.4 |
| 20260509103020 | 16 | 94 | 3.2 | 14.5 | 0.00 | 0.00 | 0.00 | 31 | 1023.4 |
| 20260509102509 | 16 | 109 | 8.0 | 14.5 | 0.00 | 0.00 | 0.00 | 32 | 1023.4 |
| 20260509102011 | 16 | 74 | 8.0 | 12.9 | 0.00 | 0.00 | 0.00 | 31 | 1023.4 |
| 20260509101526 | 16 | 92 | 4.8 | 12.9 | 0.00 | 0.00 | 0.00 | 32 | 1023.4 |
| 20260509101012 | 16 | 104 | 3.2 | 17.7 | 0.00 | 0.00 | 0.00 | 31 | 1023.5 |
| 20260509100507 | 15 | 129 | 9.7 | 17.7 | 0.00 | 0.00 | 0.00 | 32 | 1023.5 |
| 20260509100026 | 16 | 158 | 4.8 | 14.5 | 0.00 | 0.00 | 0.00 | 32 | 1023.5 |
| 20260509095510 | 15 | 124 | 4.8 | 14.5 | 0.00 | 0.00 | 0.00 | 31 | 1023.6 |
| 20260509095011 | 15 | 107 | 4.8 | 14.5 | 0.00 | 0.00 | 0.00 | 31 | 1023.5 |
| 20260509094527 | 15 | 141 | 8.0 | 16.1 | 0.00 | 0.00 | 0.00 | 30 | 1023.5 |
| 20260509094010 | 15 | 84 | 4.8 | 17.7 | 0.00 | 0.00 | 0.00 | 30 | 1023.5 |
| 20260509093509 | 15 | 114 | 8.0 | 17.7 | 0.00 | 0.00 | 0.00 | 30 | 1023.5 |
| 20260509093023 | 16 | 42 | 4.8 | 14.5 | 0.00 | 0.00 | 0.00 | 31 | 1023.5 |
| 20260509092509 | 15 | 42 | 6.4 | 14.5 | 0.00 | 0.00 | 0.00 | 29 | 1023.7 |
| 20260509092008 | 15 | 101 | 6.4 | 16.1 | 0.00 | 0.00 | 0.00 | 31 | 1023.7 |
| 20260509091518 | 15 | 42 | 8.0 | 16.1 | 0.00 | 0.00 | 0.00 | 35 | 1023.8 |
| 20260509091007 | 15 | 47 | 3.2 | 14.5 | 0.00 | 0.00 | 0.00 | 33 | 1023.7 |
| 20260509090511 | 14 | 150 | 6.4 | 14.5 | 0.00 | 0.00 | 0.00 | 34 | 1023.6 |
| 20260509090027 | 15 | 68 | 4.8 | 14.5 | 0.00 | 0.00 | 0.00 | 30 | 1023.6 |
| 20260509085510 | 14 | 61 | 3.2 | 14.5 | 0.00 | 0.00 | 0.00 | 31 | 1023.5 |
| 20260509085009 | 14 | 117 | 8.0 | 14.5 | 0.00 | 0.00 | 0.00 | 31 | 1023.5 |
| 20260509084531 | 14 | 109 | 6.4 | 12.9 | 0.00 | 0.00 | 0.00 | 33 | 1023.7 |
| 20260509084009 | 14 | 112 | 3.2 | 17.7 | 0.00 | 0.00 | 0.00 | 31 | 1023.7 |
| 20260509083510 | 14 | 75 | 8.0 | 17.7 | 0.00 | 0.00 | 0.00 | 32 | 1023.7 |
| 20260509083027 | 14 | 63 | 4.8 | 16.1 | 0.00 | 0.00 | 0.00 | 30 | 1023.8 |
| 20260509082507 | 14 | 57 | 8.0 | 16.1 | 0.00 | 0.00 | 0.00 | 31 | 1023.8 |
| 20260509082012 | 14 | 82 | 9.7 | 16.1 | 0.00 | 0.00 | 0.00 | 33 | 1023.8 |
| 20260509081528 | 13 | 75 | 4.8 | 16.1 | 0.00 | 0.00 | 0.00 | 32 | 1023.8 |
| 20260509081009 | 13 | 57 | 6.4 | 16.1 | 0.00 | 0.00 | 0.00 | 34 | 1023.8 |
| 20260509080512 | 13 | 65 | 3.2 | 12.9 | 0.00 | 0.00 | 0.00 | 36 | 1023.9 |
| 20260509080026 | 13 | 36 | 4.8 | 17.7 | 0.00 | 0.00 | 0.00 | 36 | 1023.9 |
| 20260509075509 | 13 | 86 | 3.2 | 17.7 | 0.00 | 0.00 | 0.00 | 36 | 1023.8 |
| 20260509075009 | 12 | 117 | 6.4 | 14.5 | 0.00 | 0.00 | 0.00 | 34 | 1023.9 |
| 20260509074524 | 12 | 96 | 3.2 | 14.5 | 0.00 | 0.00 | 0.00 | 35 | 1023.9 |
| 20260509074013 | 12 | 64 | 3.2 | 14.5 | 0.00 | 0.00 | 0.00 | 33 | 1024.0 |
| 20260509073514 | 12 | 82 | 3.2 | 12.9 | 0.00 | 0.00 | 0.00 | 35 | 1024.0 |
| 20260509073040 | 12 | 127 | 6.4 | 12.9 | 0.00 | 0.00 | 0.00 | 34 | 1024.0 |
| 20260509072509 | 12 | 117 | 4.8 | 12.9 | 0.00 | 0.00 | 0.00 | 36 | 1024.0 |
| 20260509072011 | 12 | 78 | 6.4 | 12.9 | 0.00 | 0.00 | 0.00 | 35 | 1024.0 |
| 20260509071526 | 12 | 42 | 6.4 | 14.5 | 0.00 | 0.00 | 0.00 | 36 | 1024.0 |
| 20260509071008 | 11 | 117 | 3.2 | 14.5 | 0.00 | 0.00 | 0.00 | 39 | 1024.0 |
| 20260509070504 | 11 | 68 | 6.4 | 14.5 | 0.00 | 0.00 | 0.00 | 38 | 1024.0 |
| 20260509070027 | 11 | 173 | 3.2 | 14.5 | 0.00 | 0.00 | 0.00 | 41 | 1024.0 |
| 20260509065508 | 11 | 62 | 8.0 | 14.5 | 0.00 | 0.00 | 0.00 | 39 | 1024.0 |
| 20260509065004 | 11 | 115 | 6.4 | 12.9 | 0.00 | 0.00 | 0.00 | 39 | 1024.0 |
| 20260509064513 | 11 | 110 | 8.0 | 12.9 | 0.00 | 0.00 | 0.00 | 39 | 1024.0 |
| 20260509064012 | 11 | 107 | 4.8 | 14.5 | 0.00 | 0.00 | 0.00 | 40 | 1024.0 |
| 20260509063509 | 11 | 117 | 6.4 | 14.5 | 0.00 | 0.00 | 0.00 | 39 | 1024.1 |
| 20260509063014 | 11 | 69 | 4.8 | 14.5 | 0.00 | 0.00 | 0.00 | 42 | 1024.0 |
| 20260509062513 | 10 | 66 | 6.4 | 14.5 | 0.00 | 0.00 | 0.00 | 41 | 1024.0 |
| 20260509062011 | 10 | 90 | 6.4 | 16.1 | 0.00 | 0.00 | 0.00 | 40 | 1024.0 |
| 20260509061515 | 10 | 111 | 4.8 | 16.1 | 0.00 | 0.00 | 0.00 | 40 | 1024.0 |
| 20260509061007 | 10 | 59 | 4.8 | 12.9 | 0.00 | 0.00 | 0.00 | 42 | 1024.0 |
| 20260509060508 | 10 | 118 | 3.2 | 12.9 | 0.00 | 0.00 | 0.00 | 41 | 1024.0 |
| 20260509060031 | 10 | 68 | 3.2 | 9.7 | 0.00 | 0.00 | 0.00 | 45 | 1024.0 |
| 20260509055509 | 9 | 90 | 3.2 | 11.3 | 0.00 | 0.00 | 0.00 | 46 | 1024.1 |
| 20260509055010 | 8 | 99 | 4.8 | 11.3 | 0.00 | 0.00 | 0.00 | 48 | 1024.1 |
| 20260509054528 | 8 | 106 | 1.6 | 4.8 | 0.00 | 0.00 | 0.00 | 51 | 1024.2 |
| 20260509054007 | 8 | 85 | 1.6 | 6.4 | 0.00 | 0.00 | 0.00 | 53 | 1024.1 |
| 20260509053506 | 8 | 59 | 1.6 | 6.4 | 0.00 | 0.00 | 0.00 | 54 | 1024.1 |
| 20260509053022 | 7 | 79 | 3.2 | 6.4 | 0.00 | 0.00 | 0.00 | 55 | 1024.2 |
| 20260509052509 | 7 | 121 | 1.6 | 4.8 | 0.00 | 0.00 | 0.00 | 57 | 1024.1 |
| 20260509052008 | 7 | 74 | 1.6 | 4.8 | 0.00 | 0.00 | 0.00 | 57 | 1024.2 |
| 20260509051516 | 7 | 62 | 1.6 | 6.4 | 0.00 | 0.00 | 0.00 | 57 | 1024.2 |
| 20260509051007 | 6 | 90 | 1.6 | 6.4 | 0.00 | 0.00 | 0.00 | 59 | 1024.2 |
| 20260509050508 | 6 | 64 | 1.6 | 4.8 | 0.00 | 0.00 | 0.00 | 59 | 1024.2 |
| 20260509050024 | 6 | 55 | 0.0 | 3.2 | 0.00 | 0.00 | 0.00 | 62 | 1024.2 |
| 20260509045510 | 6 | 60 | 0.0 | 3.2 | 0.00 | 0.00 | 0.00 | 64 | 1024.2 |
| 20260509045008 | 5 | 69 | 0.0 | 3.2 | 0.00 | 0.00 | 0.00 | 66 | 1024.1 |
| 20260509044512 | 5 | 78 | 0.0 | 4.8 | 0.00 | 0.00 | 0.00 | 68 | 1024.0 |
| 20260509044009 | 5 | 65 | 1.6 | 6.4 | 0.00 | 0.00 | 0.00 | 69 | 1024.0 |
| 20260509043510 | 3 | 66 | 1.6 | 6.4 | 0.00 | 0.00 | 0.00 | 73 | 1024.0 |
| 20260509043024 | 3 | 67 | 1.6 | 4.8 | 0.00 | 0.00 | 0.00 | 75 | 1024.0 |
| 20260509042505 | 2 | 67 | 1.6 | 4.8 | 0.00 | 0.00 | 0.00 | 77 | 1024.2 |
| 20260509042013 | 2 | 69 | 1.6 | 3.2 | 0.00 | 0.00 | 0.00 | 78 | 1024.1 |
| 20260509041521 | 1 | 67 | 0.0 | 4.8 | 0.00 | 0.00 | 0.00 | 80 | 1024.1 |
| 20260509041009 | 1 | 61 | 1.6 | 4.8 | 0.00 | 0.00 | 0.00 | 78 | 1024.0 |
| 20260509040508 | 1 | 64 | 0.0 | 1.6 | 0.00 | 0.00 | 0.00 | 78 | 1024.0 |
| 20260509040015 | 1 | 63 | 0.0 | 0.0 | 0.00 | 0.00 | 0.00 | 79 | 1024.1 |
| 20260509035504 | 1 | 63 | 0.0 | 0.0 | 0.00 | 0.00 | 0.00 | 80 | 1024.1 |
| 20260509035006 | 1 | 63 | 0.0 | 0.0 | 0.00 | 0.00 | 0.00 | 79 | 1024.1 |
| 20260509034513 | 1 | 63 | 0.0 | 0.0 | 0.00 | 0.00 | 0.00 | 78 | 1024.1 |
| 20260509034008 | 1 | 63 | 0.0 | 0.0 | 0.00 | 0.00 | 0.00 | 79 | 1024.2 |
| 20260509033502 | 1 | 63 | 0.0 | 3.2 | 0.00 | 0.00 | 0.00 | 79 | 1024.2 |
| 20260509033011 | 1 | 63 | 0.0 | 3.2 | 0.00 | 0.00 | 0.00 | 78 | 1024.2 |
| 20260509032511 | 1 | 63 | 0.0 | 3.2 | 0.00 | 0.00 | 0.00 | 78 | 1024.2 |
| 20260509032003 | 1 | 67 | 0.0 | 3.2 | 0.00 | 0.00 | 0.00 | 79 | 1024.2 |
| 20260509031515 | 1 | 67 | 0.0 | 3.2 | 0.00 | 0.00 | 0.00 | 78 | 1024.2 |
| 20260509031009 | 1 | 67 | 0.0 | 1.6 | 0.00 | 0.00 | 0.00 | 77 | 1024.2 |
| 20260509030506 | 1 | 67 | 0.0 | 3.2 | 0.00 | 0.00 | 0.00 | 76 | 1024.3 |
| 20260509030006 | 1 | 67 | 0.0 | 3.2 | 0.00 | 0.00 | 0.00 | 76 | 1024.2 |
| 20260509025505 | 1 | 67 | 0.0 | 3.2 | 0.00 | 0.00 | 0.00 | 77 | 1024.3 |
| 20260509025009 | 1 | 72 | 0.0 | 3.2 | 0.00 | 0.00 | 0.00 | 76 | 1024.3 |
| 20260509024504 | 1 | 73 | 0.0 | 3.2 | 0.00 | 0.00 | 0.00 | 76 | 1024.2 |
| 20260509024007 | 1 | 73 | 0.0 | 3.2 | 0.00 | 0.00 | 0.00 | 76 | 1024.2 |
| 20260509023507 | 1 | 73 | 0.0 | 1.6 | 0.00 | 0.00 | 0.00 | 76 | 1024.3 |
| 20260509023019 | 1 | 73 | 0.0 | 1.6 | 0.00 | 0.00 | 0.00 | 76 | 1024.4 |
| 20260509022503 | 1 | 73 | 0.0 | 1.6 | 0.00 | 0.00 | 0.00 | 76 | 1024.4 |
| 20260509022007 | 1 | 75 | 0.0 | 1.6 | 0.00 | 0.00 | 0.00 | 76 | 1024.4 |
| 20260509021518 | 1 | 75 | 0.0 | 3.2 | 0.00 | 0.00 | 0.00 | 74 | 1024.4 |
| 20260509021003 | 1 | 75 | 0.0 | 3.2 | 0.00 | 0.00 | 0.00 | 75 | 1024.6 |
| 20260509020503 | 1 | 75 | 1.6 | 1.6 | 0.00 | 0.00 | 0.00 | 75 | 1024.7 |
| 20260509020016 | 1 | 76 | 0.0 | 3.2 | 0.00 | 0.00 | 0.00 | 75 | 1024.7 |
| 20260509015508 | 1 | 76 | 0.0 | 3.2 | 0.00 | 0.00 | 0.00 | 74 | 1024.7 |
| 20260509015003 | 2 | 76 | 0.0 | 3.2 | 0.00 | 0.00 | 0.00 | 74 | 1024.7 |
| 20260509014510 | 1 | 76 | 0.0 | 3.2 | 0.00 | 0.00 | 0.00 | 74 | 1024.8 |
| 20260509014009 | 2 | 76 | 0.0 | 1.6 | 0.00 | 0.00 | 0.00 | 73 | 1024.8 |
| 20260509013507 | 2 | 76 | 0.0 | 3.2 | 0.00 | 0.00 | 0.00 | 72 | 1024.7 |
| 20260509013010 | 2 | 76 | 0.0 | 3.2 | 0.00 | 0.00 | 0.00 | 72 | 1024.7 |
| 20260509012512 | 2 | 76 | 0.0 | 3.2 | 0.00 | 0.00 | 0.00 | 73 | 1024.8 |
| 20260509012010 | 1 | 86 | 0.0 | 3.2 | 0.00 | 0.00 | 0.00 | 74 | 1024.7 |
| 20260509011507 | 1 | 86 | 1.6 | 3.2 | 0.00 | 0.00 | 0.00 | 74 | 1024.8 |
| 20260509011006 | 2 | 86 | 0.0 | 3.2 | 0.00 | 0.00 | 0.00 | 73 | 1024.8 |
| 20260509010506 | 1 | 86 | 1.6 | 3.2 | 0.00 | 0.00 | 0.00 | 73 | 1024.8 |
| 20260509010032 | 1 | 98 | 1.6 | 3.2 | 0.00 | 0.00 | 0.00 | 74 | 1024.9 |
| 20260509005506 | 1 | 98 | 0.0 | 3.2 | 0.00 | 0.00 | 0.00 | 75 | 1025.0 |
| 20260509005006 | 2 | 99 | 0.0 | 3.2 | 0.00 | 0.00 | 0.00 | 73 | 1024.9 |
| 20260509004519 | 1 | 98 | 0.0 | 3.2 | 0.00 | 0.00 | 0.00 | 74 | 1024.8 |
| 20260509004003 | 1 | 98 | 0.0 | 3.2 | 0.00 | 0.00 | 0.00 | 74 | 1024.9 |
| 20260509003506 | 2 | 98 | 0.0 | 3.2 | 0.00 | 0.00 | 0.00 | 73 | 1024.9 |
| 20260509003024 | 2 | 105 | 0.0 | 1.6 | 0.00 | 0.00 | 0.00 | 73 | 1024.9 |
| 20260509002507 | 2 | 105 | 0.0 | 0.0 | 0.00 | 0.00 | 0.00 | 72 | 1025.0 |
| 20260509002009 | 2 | 105 | 0.0 | 0.0 | 0.00 | 0.00 | 0.00 | 73 | 1025.1 |
| 20260509001521 | 2 | 105 | 0.0 | 0.0 | 0.00 | 0.00 | 0.00 | 72 | 1025.2 |
| 20260509001010 | 2 | 105 | 0.0 | 0.0 | 0.00 | 0.00 | 0.00 | 72 | 1025.2 |
| 20260509000506 | 2 | 105 | 0.0 | 0.0 | 0.00 | 0.00 | 0.00 | 71 | 1025.2 |
| 20260509000017 | 2 | 105 | 0.0 | 0.0 | 0.00 | 0.00 | 0.00 | 71 | 1025.2 |
| 20260508235513 | 2 | 105 | 0.0 | 3.2 | 0.00 | 0.00 | 0.00 | 71 | 1025.3 |
| 20260508235006 | 2 | 105 | 0.0 | 3.2 | 0.00 | 0.00 | 0.00 | 72 | 1025.2 |
| 20260508234513 | 2 | 105 | 0.0 | 11.3 | 0.00 | 0.00 | 0.00 | 70 | 1025.3 |
| 20260508234009 | 2 | 75 | 1.6 | 11.3 | 0.00 | 0.00 | 0.00 | 68 | 1025.3 |
| 20260508233512 | 2 | 98 | 0.0 | 4.8 | 0.00 | 0.00 | 0.00 | 71 | 1025.3 |
| 20260508233012 | 2 | 99 | 0.0 | 4.8 | 0.00 | 0.00 | 0.00 | 70 | 1025.5 |
| 20260508232507 | 3 | 103 | 0.0 | 0.0 | 0.00 | 0.00 | 0.00 | 69 | 1025.5 |
| 20260508232010 | 3 | 103 | 0.0 | 0.0 | 0.00 | 0.00 | 0.00 | 68 | 1025.4 |
| 20260508231525 | 3 | 103 | 0.0 | 0.0 | 0.00 | 0.00 | 0.00 | 68 | 1025.5 |
| 20260508231007 | 3 | 103 | 0.0 | 0.0 | 0.00 | 0.00 | 0.00 | 67 | 1025.5 |
| 20260508230510 | 3 | 103 | 0.0 | 0.0 | 0.00 | 0.00 | 0.00 | 67 | 1025.5 |
| 20260508230026 | 3 | 103 | 0.0 | 0.0 | 0.00 | 0.00 | 0.00 | 67 | 1025.5 |
| 20260508225513 | 3 | 103 | 0.0 | 0.0 | 0.00 | 0.00 | 0.00 | 67 | 1025.5 |
| 20260508225014 | 3 | 103 | 0.0 | 3.2 | 0.00 | 0.00 | 0.00 | 67 | 1025.5 |
| 20260508224522 | 3 | 103 | 0.0 | 3.2 | 0.00 | 0.00 | 0.00 | 65 | 1025.5 |
| 20260508224009 | 3 | 103 | 0.0 | 3.2 | 0.00 | 0.00 | 0.00 | 64 | 1025.5 |
| 20260508223507 | 3 | 103 | 0.0 | 3.2 | 0.00 | 0.00 | 0.00 | 63 | 1025.5 |
| 20260508223035 | 4 | 105 | 0.0 | 3.2 | 0.00 | 0.00 | 0.00 | 65 | 1025.5 |